TimeEDT,TemperatureF,Dew PointF,Humidity,Sea Level PressureIn,VisibilityMPH,Wind Direction,Wind SpeedMPH,Gust SpeedMPH,PrecipitationIn,Events,Conditions,WindDirDegrees,DateUTC
12:50 AM,33.8,32.0,93,29.83,2.0,Calm,Calm,-,0.01,Snow,Light Snow,0,2013-03-16 04:50:00
12:54 AM,34.0,32.0,92,29.85,2.0,Calm,Calm,-,0.01,Snow,Light Snow,0,2013-03-16 04:54:00
1:54 AM,33.1,32.0,96,29.82,3.0,East,4.6,-,0.01,Snow,Light Snow,100,2013-03-16 05:54:00
2:33 AM,33.8,32.0,93,29.78,5.0,East,5.8,-,0.00,,Overcast,100,2013-03-16 06:33:00
2:54 AM,34.0,32.0,92,29.80,4.0,ESE,8.1,-,0.00,,Overcast,110,2013-03-16 06:54:00
3:10 AM,33.8,32.0,93,29.77,5.0,ESE,5.8,-,N/A,,Overcast,110,2013-03-16 07:10:00
3:54 AM,34.0,32.0,92,29.75,7.0,East,5.8,-,N/A,,Overcast,100,2013-03-16 07:54:00
4:43 AM,33.8,32.0,93,29.71,6.0,ESE,5.8,-,N/A,,Overcast,110,2013-03-16 08:43:00
4:54 AM,34.0,32.0,92,29.74,6.0,ESE,6.9,-,N/A,,Overcast,110,2013-03-16 08:54:00
5:10 AM,33.8,32.0,93,29.71,6.0,East,5.8,-,N/A,,Overcast,100,2013-03-16 09:10:00
5:54 AM,34.0,32.0,92,29.73,5.0,East,5.8,-,N/A,,Overcast,80,2013-03-16 09:54:00
6:54 AM,34.0,32.0,92,29.73,4.0,East,4.6,-,0.04,Rain,Light Rain,90,2013-03-16 10:54:00
7:54 AM,34.0,32.0,92,29.72,5.0,Variable,5.8,-,0.01,Rain,Light Rain,0,2013-03-16 11:54:00
8:54 AM,34.0,32.0,92,29.70,5.0,East,6.9,-,0.01,,Overcast,80,2013-03-16 12:54:00
9:54 AM,34.0,32.0,92,29.71,4.0,East,5.8,-,N/A,,Overcast,90,2013-03-16 13:54:00
10:08 AM,33.8,32.0,93,29.67,2.0,East,5.8,-,0.00,Rain,Light Rain,100,2013-03-16 14:08:00
10:54 AM,34.0,32.0,92,29.69,2.0,ENE,6.9,-,0.00,Rain,Light Rain,70,2013-03-16 14:54:00
11:36 AM,33.8,32.0,93,29.66,4.0,ENE,10.4,-,0.01,,Overcast,60,2013-03-16 15:36:00
11:54 AM,34.0,32.0,92,29.68,4.0,NE,8.1,-,0.01,,Overcast,50,2013-03-16 15:54:00
12:51 PM,35.6,33.8,93,29.65,2.5,Calm,Calm,-,N/A,,Overcast,0,2013-03-16 16:51:00
12:54 PM,36.0,34.0,93,29.67,2.5,Calm,Calm,-,N/A,,Overcast,0,2013-03-16 16:54:00
1:03 PM,35.6,33.8,93,29.66,3.0,Calm,Calm,-,N/A,,Overcast,0,2013-03-16 17:03:00
1:54 PM,37.0,34.0,89,29.71,9.0,North,5.8,-,N/A,,Overcast,360,2013-03-16 17:54:00
2:54 PM,37.0,34.0,89,29.73,7.0,North,8.1,-,N/A,,Overcast,350,2013-03-16 18:54:00
3:54 PM,36.0,34.0,93,29.77,2.5,North,12.7,-,N/A,,Overcast,350,2013-03-16 19:54:00
4:10 PM,33.8,33.8,100,29.76,1.0,NNW,12.7,-,0.00,Snow,Light Snow,340,2013-03-16 20:10:00
4:30 PM,33.8,32.0,93,29.78,3.0,NNW,11.5,-,0.00,Rain,Light Rain,340,2013-03-16 20:30:00
4:54 PM,33.1,30.9,92,29.82,3.0,North,9.2,-,0.00,,Overcast,10,2013-03-16 20:54:00
5:54 PM,32.0,30.0,92,29.87,8.0,North,6.9,-,N/A,,Overcast,350,2013-03-16 21:54:00
6:54 PM,32.0,28.9,88,29.90,10.0,North,10.4,-,N/A,,Overcast,350,2013-03-16 22:54:00
7:54 PM,30.9,27.0,85,29.94,10.0,North,8.1,-,N/A,,Overcast,360,2013-03-16 23:54:00
8:54 PM,30.0,26.1,85,29.98,10.0,North,8.1,-,N/A,,Overcast,350,2013-03-17 00:54:00
9:45 PM,30.2,26.6,86,29.96,10.0,North,4.6,-,N/A,,Overcast,350,2013-03-17 01:45:00
9:54 PM,30.0,25.0,82,29.99,10.0,NNW,6.9,-,N/A,,Overcast,340,2013-03-17 01:54:00
10:45 PM,28.4,24.8,86,29.97,10.0,North,6.9,-,N/A,,Overcast,360,2013-03-17 02:45:00
10:54 PM,28.9,24.1,82,30.00,10.0,North,6.9,-,N/A,,Overcast,360,2013-03-17 02:54:00
11:54 PM,28.9,24.1,82,30.01,10.0,North,5.8,-,N/A,,Overcast,360,2013-03-17 03:54:00